ELECTRON KICK STAGE R/B, 63207

Orbit data source: Space-Track

ELECTRON KICK STAGE R/B, 63207 is space debris in LEO originally from a launch on Sat, 15 Mar 2025 UTC launched from the Rocket Lab Launch Complex (RLLC). Debris objects in space refer to the collection of defunct objects orbiting the Earth. Examples of debris include non-operational satellites, rocket bodies, and fragments generated from explosions, collisions, or faulty payload assembly.

Loading next visibility...
Identifier
63207, 2025-050C
Orbit
LEO
Country
Flag of USUS
Related business
Manufacturer
Rocket Lab
Mission
Spacecraft
Bus & Motor
KICK STAGE, CURIE
Mass
~42 kg wet, ~42 kg dry
Launch date (UTC)
2025-03-15 (9 months ago)
Launch vehicle
Unknown
Launch site
Rocket Lab Launch Complex (RLLC)
Object type
Payload
Rocket body
Debris
Shape & HBR
Trunc Cone, 0.8 m
Radar Cross Section
0.760 m², Large (>1 m²)

Expand to show TLE details & history
Last TLE update: 1 day ago

TLE from 1 day ago
0 ELECTRON KICK STAGE R/B
1 63207U 25050C   25340.69454105  .00010935  00000-0  85098-3 0  9999
2 63207  42.0185  82.5337 0005127 260.4741  99.5506 15.01197212 40037
Epoch: 2025-12-06T16:40Z
TLE epoch observation values (Epoch: 2025-12-06T16:40:08.346Z)
Latitude
-0.00002°
Longitude
116.7803°
Altitude
563.466 km
Speed
7.581 km/s
True Right ascension
05h 30m 08s
True Declination
0° 00' 00"
Sunlit
Object was in full shadow at epoch
Visualization orbit readout
Latitude
Unknown
Longitude
Unknown
Altitude
Unknown
Speed
Unknown
Apparent Right ascension
Unknown
Apparent Declination
Unknown
Sunlit
N/A
Visualization observer readout
Local Sidereal Time
15:59:47
Azimuth
Unknown
Elevation
Unknown
Doppler factor
Unknown
Orbital elements
Apogee altitude
568.849 km
Perigee altitude
561.729 km
Semi-major axis
6,943.426 km
Eccentricity
0.00051
Inclination
42.0185°
RAAN
82.5337°
Arg. of periapsis
260.4741°
True anomaly
99.60853°
Mean anomaly
99.5506°
Eccentric anomaly
99.57957°
Mean motion
3.75131 °/min
Orbital period
95.97 mins
BSTAR
0.00085098
Loading maneuver chart data...
Computing Atmospheric mass density...
Loading historical data...
Loading historical data...
Loading historical data...
Loading historical data...
Loading historical data...
Loading historical data...
Loading historical data...
Other satellites on launch #50 in the year 2025 (2025-03-15 UTC)

Documentation

Showing up to 5 results
|